Total_Precipitation_Accumulation
0.82 0.70 0.82 0.84 0.70 0.78 1.13 1.08 1.01 0.71 0.67 0.76 0.75 0.77 0.75 0.70 0.61 0.55 0.53 0.52 0.49 0.52 0.55 0.59 0.63 0.70 0.84 0.99 1.08 1.23 1.39 1.43 1.43 1.43 1.43 1.42 1.45 1.42 1.42 1.47 1.54 1.61 1.60 1.53
0.86 0.54 0.57 0.63 0.54 0.62 0.74 0.71 0.70 0.58 0.67 0.63 0.60 0.63 0.67 0.63 0.54 0.49 0.50 0.49 0.44 0.44 0.45 0.49 0.55 0.61 0.71 0.88 1.00 1.10 1.24 1.33 1.37 1.35 1.36 1.38 1.36 1.34 1.30 1.35 1.43 1.53 1.60 1.61
1.06 0.56 0.66 0.76 0.62 0.61 0.68 0.66 0.65 0.75 0.71 0.51 0.51 0.60 0.71 0.67 0.55 0.51 0.50 0.49 0.46 0.46 0.46 0.46 0.50 0.59 0.71 0.83 0.91 0.97 1.05 1.14 1.21 1.24 1.27 1.30 1.32 1.34 1.38 1.41 1.46 1.54 1.62 1.68
1.25 0.90 1.08 0.78 0.52 0.51 0.60 0.65 0.62 0.64 0.55 0.49 0.54 0.60 0.64 0.67 0.62 0.54 0.47 0.45 0.46 0.49 0.48 0.47 0.48 0.55 0.68 0.82 0.94 1.01 1.07 1.11 1.12 1.18 1.24 1.29 1.38 1.46 1.55 1.60 1.62 1.69 1.74 1.76
1.37 1.02 0.65 0.41 0.33 0.48 0.61 0.69 0.58 0.52 0.44 0.39 0.42 0.50 0.56 0.54 0.55 0.57 0.51 0.50 0.53 0.56 0.57 0.55 0.55 0.57 0.67 0.83 0.94 1.03 1.11 1.17 1.18 1.25 1.35 1.43 1.55 1.64 1.67 1.74 1.73 1.70 1.68 1.65
1.46 1.19 0.65 0.43 0.23 0.28 0.49 0.72 0.46 0.41 0.42 0.39 0.38 0.52 0.56 0.52 0.55 0.58 0.54 0.53 0.56 0.58 0.57 0.60 0.65 0.67 0.76 0.93 1.03 1.12 1.22 1.32 1.33 1.35 1.41 1.47 1.52 1.53 1.53 1.53 1.50 1.44 1.41 1.37
1.19 1.14 0.61 0.41 0.20 0.20 0.60 0.76 0.46 0.46 0.48 0.46 0.52 0.60 0.55 0.50 0.53 0.57 0.60 0.63 0.65 0.66 0.70 0.78 0.84 0.88 0.99 1.12 1.27 1.33 1.34 1.41 1.40 1.36 1.37 1.35 1.33 1.28 1.23 1.21 1.18 1.15 1.12 1.09
0.88 1.21 0.80 0.40 0.29 0.54 0.75 0.52 0.45 0.44 0.44 0.45 0.43 0.40 0.40 0.41 0.45 0.49 0.53 0.60 0.67 0.75 0.80 0.84 0.95 1.05 1.15 1.30 1.37 1.31 1.25 1.25 1.22 1.15 1.12 1.07 1.04 1.08 1.05 1.03 1.08 1.08 1.04 1.02
0.82 0.88 0.73 0.56 0.59 0.62 0.55 0.50 0.44 0.46 0.43 0.41 0.41 0.40 0.40 0.41 0.42 0.44 0.46 0.50 0.57 0.66 0.74 0.77 0.86 0.91 1.00 1.05 1.02 0.99 0.98 1.01 1.02 0.98 0.96 0.97 0.95 0.98 1.03 1.02 1.03 1.03 1.01 1.04
0.70 0.67 0.57 0.53 0.49 0.46 0.43 0.46 0.43 0.41 0.39 0.38 0.42 0.39 0.38 0.39 0.40 0.42 0.44 0.47 0.50 0.54 0.60 0.67 0.74 0.77 0.80 0.80 0.78 0.81 0.87 0.92 0.95 0.96 0.94 0.95 0.98 0.96 1.00 1.04 1.05 1.02 0.99 1.01
0.62 0.50 0.44 0.40 0.38 0.40 0.38 0.34 0.34 0.33 0.33 0.36 0.37 0.36 0.37 0.39 0.41 0.43 0.43 0.46 0.48 0.57 0.64 0.72 0.74 0.77 0.79 0.80 0.80 0.84 0.88 0.94 0.99 1.01 0.98 0.97 0.99 1.02 1.04 1.06 1.12 1.23 1.19 1.12
0.70 0.51 0.53 0.48 0.38 0.35 0.34 0.34 0.37 0.37 0.37 0.36 0.38 0.43 0.42 0.44 0.46 0.47 0.48 0.47 0.48 0.53 0.61 0.69 0.71 0.73 0.78 0.83 0.86 0.90 0.92 0.94 0.97 1.01 1.02 1.00 0.96 1.02 1.09 1.09 1.12 1.14 1.14 1.17
0.57 0.42 0.40 0.38 0.32 0.30 0.34 0.38 0.40 0.40 0.40 0.41 0.42 0.44 0.46 0.49 0.50 0.50 0.51 0.51 0.55 0.59 0.62 0.67 0.69 0.72 0.79 0.83 0.86 0.90 0.96 0.98 0.99 1.00 1.01 1.02 0.95 0.93 1.03 1.10 1.12 1.11 1.10 1.10
0.35 0.34 0.36 0.33 0.35 0.34 0.36 0.39 0.38 0.39 0.40 0.42 0.44 0.45 0.47 0.48 0.48 0.49 0.56 0.62 0.62 0.60 0.60 0.61 0.61 0.68 0.77 0.78 0.80 0.86 0.90 0.96 0.99 0.99 1.03 1.05 1.04 0.98 0.93 0.96 1.01 1.04 1.06 1.11
0.30 0.34 0.42 0.39 0.35 0.35 0.35 0.34 0.34 0.36 0.36 0.38 0.40 0.44 0.47 0.49 0.52 0.55 0.58 0.59 0.56 0.53 0.54 0.54 0.56 0.64 0.70 0.73 0.75 0.79 0.86 0.94 0.98 1.00 1.03 1.07 1.09 1.09 1.04 0.97 0.95 0.96 0.97 1.05
0.33 0.32 0.34 0.36 0.37 0.36 0.35 0.35 0.37 0.40 0.39 0.40 0.42 0.47 0.50 0.51 0.51 0.51 0.54 0.55 0.55 0.57 0.58 0.56 0.58 0.63 0.64 0.67 0.69 0.73 0.83 0.98 1.05 1.06 1.06 1.08 1.08 1.09 1.08 1.03 0.99 0.93 0.92 1.02
0.48 0.45 0.42 0.42 0.41 0.41 0.42 0.45 0.47 0.47 0.45 0.44 0.46 0.46 0.45 0.44 0.43 0.45 0.49 0.51 0.53 0.57 0.57 0.58 0.61 0.59 0.59 0.61 0.67 0.72 0.78 0.89 0.98 0.97 0.97 1.03 1.08 1.10 1.11 1.11 1.05 0.98 0.97 1.06
0.56 0.58 0.56 0.55 0.53 0.51 0.49 0.47 0.47 0.46 0.47 0.47 0.45 0.44 0.44 0.43 0.45 0.46 0.48 0.46 0.44 0.46 0.51 0.58 0.60 0.56 0.52 0.56 0.62 0.68 0.73 0.79 0.85 0.90 0.94 1.02 1.11 1.11 1.10 1.11 1.06 1.00 0.99 1.05
0.51 0.53 0.53 0.54 0.54 0.53 0.53 0.53 0.52 0.50 0.49 0.47 0.45 0.46 0.46 0.47 0.49 0.50 0.47 0.45 0.44 0.47 0.52 0.54 0.59 0.54 0.53 0.58 0.65 0.68 0.71 0.74 0.77 0.81 0.88 0.97 1.01 0.99 1.00 1.03 1.03 0.99 0.97 0.99
0.50 0.51 0.51 0.53 0.52 0.51 0.53 0.53 0.50 0.49 0.48 0.46 0.46 0.46 0.47 0.48 0.48 0.47 0.44 0.45 0.53 0.58 0.55 0.55 0.54 0.53 0.55 0.60 0.69 0.70 0.70 0.73 0.77 0.80 0.83 0.89 0.91 0.92 0.92 0.94 0.94 0.94 0.94 0.96
0.51 0.50 0.50 0.52 0.53 0.52 0.51 0.50 0.48 0.50 0.50 0.48 0.48 0.49 0.49 0.49 0.46 0.43 0.41 0.43 0.48 0.49 0.50 0.50 0.48 0.51 0.60 0.73 0.78 0.72 0.70 0.73 0.78 0.82 0.85 0.87 0.90 0.90 0.88 0.88 0.88 0.89 0.90 0.91
0.50 0.50 0.52 0.51 0.48 0.50 0.50 0.49 0.48 0.49 0.49 0.49 0.49 0.47 0.46 0.45 0.43 0.40 0.41 0.47 0.50 0.53 0.52 0.48 0.51 0.64 0.83 0.91 0.80 0.71 0.71 0.74 0.77 0.81 0.85 0.86 0.87 0.86 0.83 0.83 0.86 0.85 0.84 0.85
0.46 0.47 0.48 0.49 0.49 0.49 0.47 0.47 0.47 0.46 0.47 0.48 0.50 0.51 0.49 0.47 0.45 0.45 0.49 0.48 0.48 0.53 0.53 0.54 0.64 0.80 0.90 0.82 0.70 0.68 0.71 0.73 0.74 0.76 0.79 0.80 0.80 0.79 0.79 0.78 0.77 0.78 0.79 0.79
0.37 0.37 0.39 0.40 0.37 0.35 0.38 0.40 0.40 0.41 0.42 0.44 0.45 0.46 0.46 0.44 0.42 0.43 0.48 0.51 0.52 0.55 0.54 0.58 0.68 0.77 0.77 0.67 0.61 0.63 0.65 0.66 0.67 0.68 0.69 0.69 0.69 0.70 0.71 0.71 0.71 0.69 0.70 0.71
0.30 0.30 0.28 0.28 0.29 0.31 0.32 0.32 0.31 0.31 0.32 0.35 0.38 0.38 0.39 0.42 0.47 0.47 0.45 0.47 0.49 0.50 0.49 0.52 0.56 0.57 0.56 0.54 0.55 0.56 0.58 0.62 0.67 0.71 0.68 0.66 0.65 0.65 0.64 0.64 0.65 0.65 0.64 0.65
0.26 0.25 0.25 0.25 0.26 0.27 0.27 0.26 0.27 0.28 0.29 0.32 0.34 0.36 0.38 0.41 0.43 0.45 0.46 0.45 0.44 0.45 0.45 0.46 0.46 0.46 0.47 0.48 0.49 0.50 0.53 0.55 0.58 0.60 0.59 0.61 0.61 0.62 0.61 0.60 0.59 0.60 0.61 0.61
0.24 0.23 0.22 0.21 0.22 0.24 0.25 0.26 0.28 0.30 0.32 0.36 0.39 0.38 0.39 0.41 0.42 0.43 0.42 0.41 0.41 0.42 0.42 0.43 0.44 0.44 0.45 0.46 0.46 0.46 0.48 0.50 0.53 0.55 0.56 0.58 0.59 0.60 0.59 0.59 0.58 0.58 0.60 0.59